Year,Month,Day,Hour,Minute,Value (Times are PST for temperature in C)
2016,07,15,00,00,15.30
2016,07,15,00,01,15.30
2016,07,15,00,02,15.30
2016,07,15,00,03,15.30
2016,07,15,00,04,15.30
2016,07,15,00,05,15.30
2016,07,15,00,06,15.30
2016,07,15,00,07,15.30
2016,07,15,00,08,15.30
2016,07,15,00,09,15.30
2016,07,15,00,10,15.30
2016,07,15,00,11,15.30
2016,07,15,00,13,15.30
2016,07,15,00,14,15.30
2016,07,15,00,16,15.30
2016,07,15,00,17,15.30
2016,07,15,00,18,15.30
2016,07,15,00,19,15.30
2016,07,15,00,21,15.30
2016,07,15,00,22,15.30
2016,07,15,00,23,15.30
2016,07,15,00,24,15.20
2016,07,15,00,26,15.20
2016,07,15,00,27,15.20
2016,07,15,00,28,15.20
2016,07,15,00,29,15.20
2016,07,15,00,31,15.20
2016,07,15,00,32,15.20
2016,07,15,00,33,15.20
2016,07,15,00,34,15.20
2016,07,15,00,36,15.20
2016,07,15,00,37,15.20
2016,07,15,00,38,15.20
2016,07,15,00,39,15.20
2016,07,15,00,41,15.20
2016,07,15,00,42,15.20
2016,07,15,01,26,14.50
2016,07,15,01,27,14.50
2016,07,15,01,28,14.40
2016,07,15,01,29,14.40
2016,07,15,01,31,14.40
2016,07,15,01,32,14.30
2016,07,15,01,33,14.30
2016,07,15,01,34,14.30
2016,07,15,01,36,14.20
2016,07,15,01,37,14.20
2016,07,15,01,38,14.20
2016,07,15,01,39,14.20
2016,07,15,01,41,14.20
2016,07,15,01,42,14.20
2016,07,15,01,43,14.20
2016,07,15,01,44,14.10
2016,07,15,01,46,14.10
2016,07,15,01,47,14.10
2016,07,15,01,48,14.00
2016,07,15,01,49,14.00
2016,07,15,01,51,13.90
2016,07,15,01,52,13.90
2016,07,15,01,53,13.90
2016,07,15,01,54,13.90
2016,07,15,01,56,13.80
2016,07,15,01,57,13.80
2016,07,15,01,58,13.80
2016,07,15,01,59,13.80
2016,07,15,02,01,13.70
2016,07,15,02,02,13.70
2016,07,15,02,03,13.70
2016,07,15,02,04,13.70
2016,07,15,02,06,13.70
2016,07,15,02,07,13.70
2016,07,15,02,08,13.70
2016,07,15,02,09,13.70
2016,07,15,02,11,13.70
2016,07,15,02,12,13.70
2016,07,15,02,13,13.70
2016,07,15,02,14,13.70
2016,07,15,02,15,13.70
2016,07,15,02,16,13.70
2016,07,15,02,17,13.70
2016,07,15,02,18,13.70
2016,07,15,02,19,13.70
2016,07,15,02,20,13.70
2016,07,15,02,21,13.60
2016,07,15,02,22,13.60
2016,07,15,02,23,13.60
2016,07,15,02,24,13.60
2016,07,15,02,25,13.50
2016,07,15,02,26,13.50
2016,07,15,02,27,13.50
2016,07,15,02,28,13.50
2016,07,15,02,29,13.40
2016,07,15,02,30,13.40
2016,07,15,02,31,13.40
2016,07,15,02,32,13.40
2016,07,15,02,33,13.30
2016,07,15,02,34,13.30
2016,07,15,02,35,13.30
2016,07,15,02,36,13.30
2016,07,15,02,37,13.30
2016,07,15,02,38,13.30
2016,07,15,02,39,13.30
2016,07,15,02,40,13.30
2016,07,15,02,41,13.30
2016,07,15,02,42,13.30
2016,07,15,02,43,13.30
2016,07,15,02,44,13.30
2016,07,15,02,45,13.30
2016,07,15,02,46,13.30
2016,07,15,02,47,13.20
2016,07,15,02,48,13.20
2016,07,15,02,49,13.20
2016,07,15,02,50,13.20
2016,07,15,02,51,13.20
2016,07,15,02,52,13.20
2016,07,15,02,53,13.20
2016,07,15,02,54,13.20
2016,07,15,02,55,13.20
2016,07,15,02,56,13.20
2016,07,15,02,57,13.20
2016,07,15,02,58,13.20
2016,07,15,02,59,13.10
2016,07,15,03,00,13.10
2016,07,15,03,01,13.10
2016,07,15,03,02,13.10
2016,07,15,03,03,13.10
2016,07,15,03,04,13.10
2016,07,15,03,05,13.00
2016,07,15,03,06,13.00
2016,07,15,03,07,13.00
2016,07,15,03,08,13.00
2016,07,15,03,09,13.00
2016,07,15,03,10,13.00
2016,07,15,03,11,13.00
2016,07,15,03,12,12.90
2016,07,15,03,13,12.90
2016,07,15,03,14,12.90
2016,07,15,03,15,12.90
2016,07,15,03,16,12.90
2016,07,15,03,17,12.90
2016,07,15,03,18,12.90
2016,07,15,03,19,12.90
2016,07,15,03,20,12.90
2016,07,15,03,21,12.90
2016,07,15,03,22,12.90
2016,07,15,03,23,12.80
2016,07,15,03,24,12.80
2016,07,15,03,25,12.80
2016,07,15,03,26,12.80
2016,07,15,03,27,12.80
2016,07,15,03,28,12.80
2016,07,15,03,29,12.80
2016,07,15,03,30,12.80
2016,07,15,03,31,12.80
2016,07,15,03,32,12.80
2016,07,15,03,33,12.80
2016,07,15,03,34,12.80
2016,07,15,03,35,12.80
2016,07,15,03,36,12.80
2016,07,15,03,37,12.80
2016,07,15,03,38,12.80
2016,07,15,03,39,12.80
2016,07,15,03,40,12.80
2016,07,15,03,41,12.80
2016,07,15,03,42,12.80
2016,07,15,03,43,12.80
2016,07,15,03,44,12.80
2016,07,15,03,45,12.80
2016,07,15,03,46,12.80
2016,07,15,03,48,12.80
2016,07,15,03,49,12.80
2016,07,15,03,51,12.80
2016,07,15,03,52,12.80
2016,07,15,03,53,12.80
2016,07,15,03,54,12.80
2016,07,15,03,56,12.80
2016,07,15,03,57,12.80
2016,07,15,03,58,12.80
2016,07,15,03,59,12.80
2016,07,15,04,01,12.80
2016,07,15,04,02,12.80
2016,07,15,04,03,12.80
2016,07,15,04,04,12.80
2016,07,15,04,06,12.80
2016,07,15,04,07,12.80
2016,07,15,04,08,12.80
2016,07,15,04,09,12.80
2016,07,15,04,11,12.80
2016,07,15,04,12,12.80
2016,07,15,04,13,12.80
2016,07,15,04,14,12.80
2016,07,15,04,16,12.80
2016,07,15,04,17,12.80
2016,07,15,04,18,12.80
2016,07,15,04,19,12.80
2016,07,15,04,21,12.80
2016,07,15,04,22,12.80
2016,07,15,04,23,12.80
2016,07,15,04,24,12.80
2016,07,15,04,26,12.80
2016,07,15,04,27,12.80
2016,07,15,04,28,12.80
2016,07,15,04,29,12.80
2016,07,15,04,31,12.80
2016,07,15,04,32,12.80
2016,07,15,04,33,12.80
2016,07,15,04,34,12.80
2016,07,15,04,36,12.80
2016,07,15,04,37,12.70
2016,07,15,04,38,12.70
2016,07,15,04,39,12.70
2016,07,15,04,41,12.60
2016,07,15,04,42,12.60
2016,07,15,04,43,12.60
2016,07,15,04,44,12.60
2016,07,15,04,46,12.50
2016,07,15,04,47,12.50
2016,07,15,04,48,12.50
2016,07,15,04,49,12.50
2016,07,15,04,51,12.50
2016,07,15,04,52,12.50
2016,07,15,04,53,12.50
2016,07,15,04,54,12.50
2016,07,15,04,55,12.50
2016,07,15,04,56,12.40
2016,07,15,04,57,12.40
2016,07,15,04,58,12.40
2016,07,15,04,59,12.40
2016,07,15,05,00,12.40
2016,07,15,05,01,12.40
2016,07,15,05,02,12.40
2016,07,15,05,03,12.40
2016,07,15,05,04,12.40
2016,07,15,05,06,12.40
2016,07,15,05,07,12.40
2016,07,15,05,08,12.40
2016,07,15,05,09,12.40
2016,07,15,05,10,12.40
2016,07,15,05,11,12.40
2016,07,15,05,12,12.40
2016,07,15,05,13,12.40
2016,07,15,05,14,12.40
2016,07,15,05,15,12.40
2016,07,15,05,16,12.40
2016,07,15,05,17,12.40
2016,07,15,05,18,12.40
2016,07,15,05,19,12.40
2016,07,15,05,20,12.40
2016,07,15,05,21,12.40
2016,07,15,05,22,12.40
2016,07,15,05,23,12.40
2016,07,15,05,24,12.40
2016,07,15,05,25,12.40
2016,07,15,05,26,12.40
2016,07,15,05,27,12.40
2016,07,15,05,28,12.30
2016,07,15,05,29,12.30
2016,07,15,05,30,12.30
2016,07,15,05,31,12.30
2016,07,15,05,32,12.30
2016,07,15,05,33,12.30
2016,07,15,05,34,12.30
2016,07,15,05,35,12.30
2016,07,15,05,36,12.30
2016,07,15,05,37,12.30
2016,07,15,05,38,12.30
2016,07,15,05,39,12.30
2016,07,15,05,40,12.30
2016,07,15,05,41,12.30
2016,07,15,05,42,12.30
2016,07,15,05,43,12.30
2016,07,15,05,44,12.30
2016,07,15,05,45,12.30
2016,07,15,05,46,12.30
2016,07,15,05,47,12.30
2016,07,15,05,48,12.30
2016,07,15,05,49,12.30
2016,07,15,05,50,12.30
2016,07,15,05,51,12.30
2016,07,15,05,52,12.30
2016,07,15,05,53,12.30
2016,07,15,05,54,12.30
2016,07,15,05,55,12.30
2016,07,15,05,56,12.30
2016,07,15,05,57,12.30
2016,07,15,05,58,12.30
2016,07,15,05,59,12.30
2016,07,15,06,00,12.30
2016,07,15,06,01,12.30
2016,07,15,06,02,12.30
2016,07,15,06,03,12.30
2016,07,15,06,04,12.30
2016,07,15,06,05,12.30
2016,07,15,06,06,12.30
2016,07,15,06,26,12.50
2016,07,15,06,27,12.50
2016,07,15,06,28,12.50
2016,07,15,06,29,12.50
2016,07,15,06,31,12.50
2016,07,15,06,32,12.50
2016,07,15,06,33,12.50
2016,07,15,06,34,12.50
2016,07,15,06,36,12.50
2016,07,15,06,37,12.50
2016,07,15,06,38,12.50
2016,07,15,06,39,12.50
2016,07,15,06,41,12.50
2016,07,15,06,42,12.50
2016,07,15,06,43,12.40
2016,07,15,06,44,12.40
2016,07,15,06,46,12.40
2016,07,15,06,47,12.40
2016,07,15,06,48,12.40
2016,07,15,06,49,12.40
2016,07,15,06,51,12.40
2016,07,15,06,52,12.40
2016,07,15,06,53,12.40
2016,07,15,06,54,12.40
2016,07,15,06,56,12.40
2016,07,15,06,57,12.50
2016,07,15,06,58,12.50
2016,07,15,06,59,12.50
2016,07,15,07,01,12.50
2016,07,15,07,02,12.50
2016,07,15,07,03,12.50
2016,07,15,07,04,12.50
2016,07,15,07,06,12.50
2016,07,15,07,07,12.50
2016,07,15,07,08,12.50
2016,07,15,07,09,12.50
2016,07,15,07,11,12.60
2016,07,15,07,12,12.60
2016,07,15,07,13,12.60
2016,07,15,07,14,12.60
2016,07,15,07,15,12.70
2016,07,15,07,16,12.70
2016,07,15,07,17,12.70
2016,07,15,07,18,12.70
2016,07,15,07,19,12.70
2016,07,15,07,20,12.70
2016,07,15,07,21,12.70
2016,07,15,07,22,12.70
2016,07,15,07,23,12.60
2016,07,15,07,24,12.60
2016,07,15,07,25,12.60
2016,07,15,07,26,12.60
2016,07,15,07,27,12.60
2016,07,15,07,28,12.60
2016,07,15,07,29,12.70
2016,07,15,07,30,12.70
2016,07,15,07,31,12.70
2016,07,15,07,32,12.70
2016,07,15,07,33,12.80
2016,07,15,07,34,12.80
2016,07,15,07,35,12.80
2016,07,15,07,36,12.80
2016,07,15,07,37,12.80
2016,07,15,07,38,12.80
2016,07,15,07,39,12.80
2016,07,15,07,40,12.90
2016,07,15,07,41,12.90
2016,07,15,07,42,12.90
2016,07,15,07,43,13.00
2016,07,15,07,44,13.00
2016,07,15,07,45,13.10
2016,07,15,07,46,13.10
2016,07,15,07,47,13.10
2016,07,15,07,48,13.20
2016,07,15,07,49,13.20
2016,07,15,07,50,13.30
2016,07,15,07,51,13.30
2016,07,15,07,52,13.30
2016,07,15,07,53,13.30
2016,07,15,07,54,13.40
2016,07,15,07,55,13.40
2016,07,15,07,56,13.50
2016,07,15,07,57,13.50
2016,07,15,07,58,13.60
2016,07,15,07,59,13.60
2016,07,15,08,00,13.60
2016,07,15,08,01,13.60
2016,07,15,08,02,13.70
2016,07,15,08,03,13.70
2016,07,15,08,04,13.70
2016,07,15,08,05,13.70
2016,07,15,08,06,13.70
2016,07,15,08,07,13.70
2016,07,15,08,08,13.80
2016,07,15,08,09,13.80
2016,07,15,08,10,13.80
2016,07,15,08,11,13.80
2016,07,15,08,12,13.80
2016,07,15,08,13,13.80
2016,07,15,08,14,13.80
2016,07,15,08,15,13.80
2016,07,15,08,16,13.70
2016,07,15,08,17,13.70
2016,07,15,08,18,13.70
2016,07,15,08,19,13.70
2016,07,15,08,20,13.80
2016,07,15,08,21,13.80
2016,07,15,08,22,13.80
2016,07,15,08,23,13.80
2016,07,15,08,24,13.90
2016,07,15,08,25,13.90
2016,07,15,08,26,14.00
2016,07,15,08,27,14.00
2016,07,15,08,28,14.10
2016,07,15,08,29,14.20
2016,07,15,08,30,14.30
2016,07,15,08,31,14.40
2016,07,15,08,32,14.50
2016,07,15,08,33,14.50
2016,07,15,08,34,14.60
2016,07,15,08,35,14.60
2016,07,15,08,37,14.70
2016,07,15,08,38,14.80
2016,07,15,08,39,14.80
2016,07,15,08,41,14.90
2016,07,15,08,42,14.90
2016,07,15,08,43,15.00
2016,07,15,08,44,15.00
2016,07,15,08,46,15.10
2016,07,15,08,47,15.20
2016,07,15,08,48,15.20
2016,07,15,08,49,15.20
2016,07,15,08,51,15.30
2016,07,15,08,52,15.30
2016,07,15,08,53,15.30
2016,07,15,08,54,15.30
2016,07,15,08,56,15.30
2016,07,15,08,57,15.40
2016,07,15,08,58,15.50
2016,07,15,08,59,15.50
2016,07,15,09,01,15.60
2016,07,15,09,02,15.70
2016,07,15,09,03,15.70
2016,07,15,09,04,15.70
2016,07,15,09,06,15.60
2016,07,15,09,07,15.70
2016,07,15,09,08,15.70
2016,07,15,09,09,15.70
2016,07,15,09,11,15.70
2016,07,15,09,12,15.80
2016,07,15,09,13,15.80
2016,07,15,09,14,15.80
2016,07,15,09,16,15.80
2016,07,15,09,17,15.80
2016,07,15,09,18,15.90
2016,07,15,09,19,15.90
2016,07,15,09,21,16.10
2016,07,15,09,22,16.10
2016,07,15,09,23,16.10
2016,07,15,09,24,16.20
2016,07,15,09,26,16.20
2016,07,15,09,27,16.20
2016,07,15,09,28,16.20
2016,07,15,09,29,16.20
2016,07,15,09,31,16.20
2016,07,15,09,32,16.20
2016,07,15,09,33,16.20
2016,07,15,09,34,16.20
2016,07,15,09,36,16.20
2016,07,15,09,37,16.20
2016,07,15,09,38,16.20
2016,07,15,09,39,16.20
2016,07,15,09,41,16.30
2016,07,15,09,42,16.40
2016,07,15,09,43,16.40
2016,07,15,09,44,16.40
2016,07,15,09,46,16.40
2016,07,15,09,47,16.60
2016,07,15,09,48,16.60
2016,07,15,09,49,16.60
2016,07,15,09,51,16.70
2016,07,15,09,52,16.70
2016,07,15,09,53,16.70
2016,07,15,09,54,16.80
2016,07,15,09,55,16.90
2016,07,15,09,56,16.90
2016,07,15,09,57,17.00
2016,07,15,09,58,17.00
2016,07,15,09,59,17.10
2016,07,15,10,00,17.20
2016,07,15,10,01,17.20
2016,07,15,10,02,17.10
2016,07,15,10,03,17.20
2016,07,15,10,04,17.20
2016,07,15,10,06,17.30
2016,07,15,10,07,17.30
2016,07,15,10,08,17.30
2016,07,15,10,09,17.30
2016,07,15,10,10,17.30
2016,07,15,10,11,17.30
2016,07,15,10,12,17.30
2016,07,15,10,13,17.30
2016,07,15,10,14,17.30
2016,07,15,10,15,17.30
2016,07,15,10,16,17.30
2016,07,15,10,17,17.30
2016,07,15,10,18,17.30
2016,07,15,10,19,17.30
2016,07,15,10,20,17.30
2016,07,15,10,21,17.40
2016,07,15,10,22,17.40
2016,07,15,10,23,17.50
2016,07,15,10,24,17.50
2016,07,15,10,25,17.50
2016,07,15,10,26,17.50
2016,07,15,10,27,17.50
2016,07,15,10,28,17.50
2016,07,15,10,29,17.50
2016,07,15,10,30,17.50
2016,07,15,10,31,17.50
2016,07,15,10,32,17.50
2016,07,15,10,33,17.50
2016,07,15,10,34,17.40
2016,07,15,10,35,17.40
2016,07,15,10,36,17.40
2016,07,15,10,37,17.40
2016,07,15,10,38,17.40
2016,07,15,10,39,17.30
2016,07,15,10,40,17.30
2016,07,15,10,41,17.30
2016,07,15,10,42,17.30
2016,07,15,10,43,17.30
2016,07,15,10,44,17.30
2016,07,15,10,45,17.30
2016,07,15,10,46,17.40
2016,07,15,10,47,17.50
2016,07,15,10,48,17.50
2016,07,15,10,49,17.60
2016,07,15,10,50,17.70
2016,07,15,10,51,17.80
2016,07,15,10,52,17.90
2016,07,15,10,53,17.90
2016,07,15,10,54,18.10
2016,07,15,10,55,18.20
2016,07,15,10,56,18.20
2016,07,15,10,57,18.30
2016,07,15,10,58,18.30
2016,07,15,10,59,18.40
2016,07,15,11,00,18.50
2016,07,15,11,01,18.50
2016,07,15,11,02,18.60
2016,07,15,11,03,18.60
2016,07,15,11,04,18.60
2016,07,15,11,05,18.50
2016,07,15,11,06,18.50
2016,07,15,11,07,18.50
2016,07,15,11,08,18.50
2016,07,15,11,09,18.50
2016,07,15,11,10,18.40
2016,07,15,11,11,18.40
2016,07,15,11,12,18.30
2016,07,15,11,13,18.30
2016,07,15,11,14,18.20
2016,07,15,11,16,18.20
2016,07,15,11,18,18.10
2016,07,15,11,19,18.10
2016,07,15,11,21,18.20
2016,07,15,11,22,18.20
2016,07,15,11,23,18.20
2016,07,15,11,24,18.20
2016,07,15,11,26,18.10
2016,07,15,11,27,18.20
2016,07,15,11,28,18.20
2016,07,15,11,29,18.20
2016,07,15,11,31,18.30
2016,07,15,11,32,18.30
2016,07,15,11,33,18.40
2016,07,15,11,34,18.40
2016,07,15,11,36,18.30
2016,07,15,11,37,18.40
2016,07,15,11,38,18.30
2016,07,15,11,39,18.40
2016,07,15,11,41,18.50
2016,07,15,11,42,18.50
2016,07,15,11,43,18.60
2016,07,15,11,44,18.70
2016,07,15,11,46,18.90
2016,07,15,11,47,18.90
2016,07,15,11,48,18.90
2016,07,15,11,49,19.10
2016,07,15,11,51,19.10
2016,07,15,11,52,19.10
2016,07,15,11,53,19.10
2016,07,15,11,54,19.10
2016,07,15,11,56,19.10
2016,07,15,11,57,19.10
2016,07,15,11,58,19.10
2016,07,15,11,59,19.10
2016,07,15,12,01,19.10
2016,07,15,12,02,19.10
2016,07,15,12,03,19.10
2016,07,15,12,04,19.10
2016,07,15,12,06,19.10
2016,07,15,12,07,19.10
2016,07,15,12,08,18.90
2016,07,15,12,09,18.90
2016,07,15,12,11,18.90
2016,07,15,12,12,18.90
2016,07,15,12,13,18.90
2016,07,15,12,14,18.90
2016,07,15,12,16,19.10
2016,07,15,12,17,19.20
2016,07,15,12,18,19.30
2016,07,15,12,19,19.30
2016,07,15,12,21,19.40
2016,07,15,12,22,19.40
2016,07,15,12,23,19.50
2016,07,15,12,24,19.50
2016,07,15,12,25,19.60
2016,07,15,12,26,19.70
2016,07,15,12,27,19.70
2016,07,15,12,28,19.70
2016,07,15,12,29,19.70
2016,07,15,12,30,19.80
2016,07,15,12,31,19.80
2016,07,15,12,32,19.80
2016,07,15,12,33,19.80
2016,07,15,12,34,19.80
2016,07,15,12,36,19.70
2016,07,15,12,37,19.70
2016,07,15,12,38,19.80
2016,07,15,12,39,19.80
2016,07,15,12,40,19.80
2016,07,15,12,41,19.80
2016,07,15,12,42,19.90
2016,07,15,12,43,19.90
2016,07,15,12,44,19.90
2016,07,15,12,45,19.80
2016,07,15,12,46,19.80
2016,07,15,12,47,19.70
2016,07,15,12,48,19.70
2016,07,15,12,49,19.60
2016,07,15,12,50,19.50
2016,07,15,12,51,19.50
2016,07,15,12,52,19.40
2016,07,15,12,53,19.40
2016,07,15,12,54,19.40
2016,07,15,12,55,19.40
2016,07,15,12,56,19.40
2016,07,15,12,57,19.30
2016,07,15,12,58,19.30
2016,07,15,12,59,19.20
2016,07,15,13,00,19.20
2016,07,15,13,01,19.30
2016,07,15,13,02,19.30
2016,07,15,13,03,19.30
2016,07,15,13,04,19.40
2016,07,15,13,05,19.40
2016,07,15,13,06,19.40
2016,07,15,13,07,19.40
2016,07,15,13,08,19.50
2016,07,15,13,09,19.50
2016,07,15,13,10,19.60
2016,07,15,13,11,19.60
2016,07,15,13,12,19.70
2016,07,15,13,13,19.70
2016,07,15,13,14,19.70
2016,07,15,13,15,19.70
2016,07,15,13,16,19.70
2016,07,15,13,17,19.80
2016,07,15,13,18,19.80
2016,07,15,13,19,19.80
2016,07,15,13,20,19.80
2016,07,15,13,21,19.80
2016,07,15,13,22,19.80
2016,07,15,13,23,19.80
2016,07,15,13,24,19.80
2016,07,15,13,25,19.80
2016,07,15,13,26,19.80
2016,07,15,13,27,19.80
2016,07,15,13,28,19.80
2016,07,15,13,29,19.90
2016,07,15,13,30,19.90
2016,07,15,13,31,19.90
2016,07,15,13,32,19.90
2016,07,15,13,33,19.90
2016,07,15,13,34,19.90
2016,07,15,13,35,19.90
2016,07,15,13,36,19.90
2016,07,15,13,37,19.90
2016,07,15,13,38,19.90
2016,07,15,13,39,19.90
2016,07,15,13,40,19.90
2016,07,15,13,41,19.90
2016,07,15,13,42,19.90
2016,07,15,13,43,19.80
2016,07,15,13,44,19.90
2016,07,15,13,45,19.90
2016,07,15,13,46,19.90
2016,07,15,13,47,19.90
2016,07,15,13,48,20.10
2016,07,15,13,49,20.10
2016,07,15,13,50,20.20
2016,07,15,13,51,20.20
2016,07,15,13,52,20.20
2016,07,15,13,53,20.30
2016,07,15,13,54,20.40
2016,07,15,13,56,20.50
2016,07,15,13,57,20.60
2016,07,15,13,58,20.60
2016,07,15,13,59,20.60
2016,07,15,14,01,20.70
2016,07,15,14,02,20.70
2016,07,15,14,03,20.70
2016,07,15,14,04,20.60
2016,07,15,14,06,20.60
2016,07,15,14,07,20.60
2016,07,15,14,08,20.60
2016,07,15,14,09,20.60
2016,07,15,14,11,20.60
2016,07,15,14,12,20.60
2016,07,15,14,13,20.70
2016,07,15,14,14,20.70
2016,07,15,14,16,20.80
2016,07,15,14,17,20.80
2016,07,15,14,18,20.90
2016,07,15,14,19,20.90
2016,07,15,14,21,20.90
2016,07,15,14,22,20.90
2016,07,15,14,23,20.90
2016,07,15,14,24,20.80
2016,07,15,14,26,20.80
2016,07,15,14,27,20.80
2016,07,15,14,28,20.80
2016,07,15,14,29,20.80
2016,07,15,14,31,20.80
2016,07,15,14,32,20.80
2016,07,15,14,33,20.90
2016,07,15,14,34,20.90
2016,07,15,14,36,21.00
2016,07,15,14,37,21.00
2016,07,15,14,38,21.00
2016,07,15,14,39,21.00
2016,07,15,14,41,21.00
2016,07,15,14,42,21.00
2016,07,15,14,43,21.00
2016,07,15,14,44,21.00
2016,07,15,14,46,21.00
2016,07,15,14,47,20.90
2016,07,15,14,48,21.00
2016,07,15,14,49,21.00
2016,07,15,14,51,21.00
2016,07,15,14,52,21.00
2016,07,15,14,53,21.00
2016,07,15,14,54,21.00
2016,07,15,14,56,20.90
2016,07,15,14,57,20.90
2016,07,15,14,58,20.90
2016,07,15,14,59,20.90
2016,07,15,15,01,21.00
2016,07,15,15,02,21.00
2016,07,15,15,03,20.90
2016,07,15,15,04,20.90
2016,07,15,15,06,20.80
2016,07,15,15,07,20.80
2016,07,15,15,08,20.80
2016,07,15,15,09,20.80
2016,07,15,15,10,20.80
2016,07,15,15,11,20.80
2016,07,15,15,12,20.90
2016,07,15,15,13,20.90
2016,07,15,15,14,20.90
2016,07,15,15,15,20.90
2016,07,15,15,16,20.90
2016,07,15,15,17,20.80
2016,07,15,15,18,20.80
2016,07,15,15,19,20.80
2016,07,15,15,20,20.80
2016,07,15,15,21,20.90
2016,07,15,15,22,20.80
2016,07,15,15,23,20.90
2016,07,15,15,24,20.80
2016,07,15,15,25,20.80
2016,07,15,15,26,20.70
2016,07,15,15,27,20.70
2016,07,15,15,28,20.60
2016,07,15,15,29,20.60
2016,07,15,15,30,20.50
2016,07,15,15,31,20.40
2016,07,15,15,32,20.30
2016,07,15,15,33,20.30
2016,07,15,15,34,20.20
2016,07,15,15,35,20.20
2016,07,15,15,36,20.20
2016,07,15,15,37,20.20
2016,07,15,15,38,20.10
2016,07,15,15,39,20.10
2016,07,15,15,40,19.90
2016,07,15,15,41,19.90
2016,07,15,15,42,19.90
2016,07,15,15,43,20.10
2016,07,15,15,44,20.10
2016,07,15,15,45,20.10
2016,07,15,15,46,20.20
2016,07,15,15,47,20.20
2016,07,15,15,48,20.20
2016,07,15,15,49,20.20
2016,07,15,15,50,20.10
2016,07,15,15,51,20.10
2016,07,15,15,52,19.90
2016,07,15,15,53,19.90
2016,07,15,15,54,19.80
2016,07,15,15,55,19.80
2016,07,15,15,56,19.70
2016,07,15,15,57,19.70
2016,07,15,15,58,19.70
2016,07,15,15,59,19.70
2016,07,15,16,00,19.70
2016,07,15,16,01,19.70
2016,07,15,16,02,19.60
2016,07,15,16,03,19.60
2016,07,15,16,04,19.50
2016,07,15,16,05,19.50
2016,07,15,16,06,19.40
2016,07,15,16,07,19.40
2016,07,15,16,08,19.50
2016,07,15,16,09,19.60
2016,07,15,16,10,19.60
2016,07,15,16,11,19.70
2016,07,15,16,12,19.80
2016,07,15,16,13,19.90
2016,07,15,16,14,19.90
2016,07,15,16,15,20.10
2016,07,15,16,16,20.10
2016,07,15,16,17,20.20
2016,07,15,16,18,20.20
2016,07,15,16,19,20.20
2016,07,15,16,20,20.20
2016,07,15,16,21,20.20
2016,07,15,16,22,20.10
2016,07,15,16,23,20.10
2016,07,15,16,24,19.90
2016,07,15,16,25,19.90
2016,07,15,16,26,19.90
2016,07,15,16,27,19.90
2016,07,15,16,28,19.90
2016,07,15,16,29,19.90
2016,07,15,16,30,19.90
2016,07,15,16,31,19.90
2016,07,15,16,32,19.90
2016,07,15,16,33,19.90
2016,07,15,16,34,19.90
2016,07,15,16,35,19.90
2016,07,15,16,36,19.90
2016,07,15,16,38,19.80
2016,07,15,16,39,19.90
2016,07,15,16,41,19.90
2016,07,15,16,42,19.90
2016,07,15,16,43,19.90
2016,07,15,16,44,19.90
2016,07,15,16,46,19.90
2016,07,15,16,47,19.90
2016,07,15,16,48,19.90
2016,07,15,16,49,19.80
2016,07,15,16,51,19.80
2016,07,15,16,52,19.80
2016,07,15,16,53,19.70
2016,07,15,16,54,19.70
2016,07,15,16,56,19.70
2016,07,15,16,57,19.70
2016,07,15,16,58,19.70
2016,07,15,16,59,19.70
2016,07,15,17,01,19.70
2016,07,15,17,02,19.70
2016,07,15,17,03,19.70
2016,07,15,17,04,19.70
2016,07,15,17,06,19.80
2016,07,15,17,07,19.90
2016,07,15,17,08,19.90
2016,07,15,17,09,19.90
2016,07,15,17,11,19.90
2016,07,15,17,12,19.90
2016,07,15,17,13,19.90
2016,07,15,17,14,19.90
2016,07,15,17,16,20.10
2016,07,15,17,17,20.10
2016,07,15,17,18,20.10
2016,07,15,17,19,19.90
2016,07,15,17,21,19.90
2016,07,15,17,22,19.90
2016,07,15,17,23,19.80
2016,07,15,17,24,19.80
2016,07,15,17,26,19.80
2016,07,15,17,27,19.80
2016,07,15,17,28,19.80
2016,07,15,17,29,19.80
2016,07,15,17,31,19.90
2016,07,15,17,32,19.90
2016,07,15,17,33,19.90
2016,07,15,17,34,19.90
2016,07,15,17,36,19.90
2016,07,15,17,37,19.90
2016,07,15,17,38,20.10
2016,07,15,17,39,20.10
2016,07,15,17,41,20.10
2016,07,15,17,42,19.90
2016,07,15,17,43,19.90
2016,07,15,17,44,19.90
2016,07,15,17,46,19.90
2016,07,15,17,47,19.90
2016,07,15,17,48,19.90
2016,07,15,17,49,19.90
2016,07,15,17,51,19.70
2016,07,15,17,52,19.70
2016,07,15,17,53,19.60
2016,07,15,17,54,19.60
2016,07,15,17,55,19.50
2016,07,15,17,56,19.50
2016,07,15,17,57,19.40
2016,07,15,17,58,19.40
2016,07,15,17,59,19.30
2016,07,15,18,00,19.30
2016,07,15,18,01,19.30
2016,07,15,18,02,19.30
2016,07,15,18,03,19.30
2016,07,15,18,04,19.20
2016,07,15,18,06,19.20
2016,07,15,18,07,19.20
2016,07,15,18,08,19.20
2016,07,15,18,09,19.20
2016,07,15,18,10,19.20
2016,07,15,18,11,19.20
2016,07,15,18,12,19.10
2016,07,15,18,13,19.10
2016,07,15,18,14,19.10
2016,07,15,18,15,19.10
2016,07,15,18,16,19.10
2016,07,15,18,17,18.90
2016,07,15,18,18,18.90
2016,07,15,18,19,18.90
2016,07,15,18,20,18.90
2016,07,15,18,21,18.90
2016,07,15,18,22,18.90
2016,07,15,18,23,18.90
2016,07,15,18,24,18.90
2016,07,15,18,25,18.90
2016,07,15,18,26,18.90
2016,07,15,18,27,18.90
2016,07,15,18,28,18.90
2016,07,15,18,29,18.90
2016,07,15,18,30,19.10
2016,07,15,18,31,19.10
2016,07,15,18,32,18.90
2016,07,15,18,33,18.90
2016,07,15,18,34,18.90
2016,07,15,18,35,18.90
2016,07,15,18,36,18.90
2016,07,15,18,37,18.90
2016,07,15,18,38,18.90
2016,07,15,18,39,18.90
2016,07,15,18,40,18.90
2016,07,15,18,41,18.90
2016,07,15,18,42,18.90
2016,07,15,18,43,18.90
2016,07,15,18,44,18.90
2016,07,15,18,45,18.90
2016,07,15,18,46,18.90
2016,07,15,18,47,18.90
2016,07,15,18,48,18.90
2016,07,15,18,49,18.90
2016,07,15,18,50,18.90
2016,07,15,18,51,18.90
2016,07,15,18,52,18.90
2016,07,15,18,53,18.90
2016,07,15,18,54,18.90
2016,07,15,18,55,18.90
2016,07,15,18,56,18.90
2016,07,15,18,57,18.80
2016,07,15,18,58,18.80
2016,07,15,18,59,18.80
2016,07,15,19,00,18.70
2016,07,15,19,01,18.60
2016,07,15,19,02,18.50
2016,07,15,19,03,18.50
2016,07,15,19,04,18.40
2016,07,15,19,05,18.30
2016,07,15,19,06,18.30
2016,07,15,19,07,18.20
2016,07,15,19,08,18.20
2016,07,15,19,09,18.20
2016,07,15,19,10,18.20
2016,07,15,19,11,18.20
2016,07,15,19,12,18.20
2016,07,15,19,13,18.20
2016,07,15,19,14,18.10
2016,07,15,19,15,17.90
2016,07,15,19,16,17.90
2016,07,15,19,17,17.90
2016,07,15,19,18,17.80
2016,07,15,19,19,17.80
2016,07,15,19,20,17.70
2016,07,15,19,22,17.60
2016,07,15,19,24,17.40
2016,07,15,19,26,17.30
2016,07,15,19,27,17.20
2016,07,15,19,28,17.10
2016,07,15,19,29,17.00
2016,07,15,19,31,16.90
2016,07,15,19,32,16.90
2016,07,15,19,33,16.80
2016,07,15,19,34,16.70
2016,07,15,19,36,16.60
2016,07,15,19,37,16.40
2016,07,15,19,38,16.40
2016,07,15,19,39,16.30
2016,07,15,19,41,16.20
2016,07,15,19,42,16.10
2016,07,15,19,43,16.10
2016,07,15,19,44,15.90
2016,07,15,19,46,15.80
2016,07,15,19,47,15.80
2016,07,15,19,48,15.70
2016,07,15,19,49,15.70
2016,07,15,19,51,15.50
2016,07,15,19,52,15.50
2016,07,15,19,53,15.40
2016,07,15,19,54,15.40
2016,07,15,19,56,15.40
2016,07,15,19,57,15.40
2016,07,15,19,58,15.40
2016,07,15,19,59,15.30
2016,07,15,20,01,15.30
2016,07,15,20,02,15.30
2016,07,15,20,03,15.30
2016,07,15,20,04,15.30
2016,07,15,20,06,15.20
2016,07,15,20,07,15.20
2016,07,15,20,08,15.10
2016,07,15,20,09,15.10
2016,07,15,20,11,15.00
2016,07,15,20,12,15.00
2016,07,15,20,13,15.00
2016,07,15,20,14,14.90
2016,07,15,20,16,14.90
2016,07,15,20,17,14.80
2016,07,15,20,18,14.80
2016,07,15,20,19,14.80